Location: Ústí nad Labem
(50.6611°N, 14.0531°E)
Time: 19:56:51
(UTC+02:00)

Vanguard 2 - Visible Passes

Search period start: 19 April 2024 00:00
Search period end: 29 April 2024 00:00
Orbit: 552 x 2917 km, 32.9° (Epoch: 18 April)

Date Brightness Start Highest point End Pass type
(mag) Time Alt. Az. Time Alt. Az. Time Alt. Az.
19 Apr 11.3 00:59:46 15° SE 00:59:46 15° SE 01:06:54 10° ESE visible
19 Apr 10.8 03:00:52 25° S 03:07:23 32° SSE 03:21:25 10° ESE visible
19 Apr 10.8 05:01:59 10° WSW 05:17:21 41° S 05:31:29 10° ESE visible
20 Apr 11.1 01:12:59 19° SE 01:12:59 19° SE 01:23:09 10° ESE visible
20 Apr 10.7 03:14:05 26° SSW 03:21:35 35° SSE 03:36:12 10° ESE visible
20 Apr 10.8 05:16:12 10° WSW 05:31:42 41° S 05:45:52 10° ESE visible
21 Apr 10.9 01:26:10 23° SE 01:26:42 23° SE 01:38:42 10° E visible
21 Apr 10.7 03:27:16 25° SSW 03:35:50 38° SSE 03:50:50 10° ESE visible
22 Apr 10.8 01:39:20 27° SSE 01:40:41 27° SSE 01:53:50 10° E visible
22 Apr 10.7 03:40:25 23° SW 03:50:06 40° S 04:05:22 10° ESE visible
22 Apr 11.4 23:51:21 11° ESE 23:51:21 11° ESE 23:52:41 10° ESE visible
23 Apr 10.6 01:52:27 30° SSE 01:54:44 31° SSE 02:08:44 10° ESE visible
23 Apr 10.7 03:53:33 20° SW 04:04:24 41° S 04:19:47 10° ESE visible
24 Apr 11.2 00:04:28 15° ESE 00:04:28 15° ESE 00:09:18 10° ESE visible
24 Apr 10.5 02:05:34 32° S 02:08:51 34° SSE 02:23:28 10° ESE visible
24 Apr 10.7 04:06:40 16° WSW 04:18:42 41° S 04:34:06 10° ESE visible
25 Apr 11.0 00:17:34 19° SE 00:17:34 19° SE 00:24:57 10° ESE visible
25 Apr 10.4 02:18:40 32° S 02:23:01 37° SSE 02:38:03 10° ESE visible
25 Apr 10.7 04:19:45 13° WSW 04:32:59 40° S 04:48:18 10° SE visible
26 Apr 10.8 00:30:40 24° SE 00:30:40 24° SE 00:40:07 10° E visible
26 Apr 10.4 02:31:45 31° SSW 02:37:14 38° SSE 02:52:32 10° ESE visible
26 Apr 10.7 04:33:09 10° WSW 04:47:14 39° S 05:02:22 10° SE visible
27 Apr 10.6 00:43:45 28° SE 00:43:45 28° SE 00:55:01 10° ESE visible
27 Apr 10.4 02:44:51 28° SW 02:51:28 39° S 03:06:54 10° ESE visible
27 Apr 10.8 04:47:41 10° WSW 05:01:28 36° SSW 05:16:16 10° SE visible
28 Apr 10.4 00:56:51 31° SSE 00:56:51 31° SSE 01:09:43 10° ESE visible
28 Apr 10.4 02:57:57 25° SW 03:05:43 39° S 03:21:09 10° ESE visible
28 Apr 10.8 05:02:20 10° WSW 05:15:39 33° SSW 05:29:57 10° SE visible
28 Apr 11.1 23:08:53 12° ESE 23:08:53 12° ESE 23:10:25 10° ESE visible
